Weather History for Bangkok (Don Mueang), Thailand

Change the Weather History Date:

Friday, January 18, 2013

  Actual Average Record
Temperature  
Mean Temperature 82 °F -  
Max Temperature 91 °F 90 °F 95 °F (1997)
Min Temperature 72 °F 73 °F 64 °F (2014)
Cooling Degree Days 16    
Growing Degree Days 32 (Base 50)    
Moisture  
Dew Point 59 °F    
Average Humidity 48    
Maximum Humidity 65    
Minimum Humidity 30    
Precipitation  
Precipitation 0.00 in 0.02 in - ()
Sea Level Pressure  
Sea Level Pressure 29.99 in    
Wind  
Wind Speed 7 mph ()    
Max Wind Speed 14 mph    
Max Gust Speed -    
Visibility 5.6 miles    
Events      
Averages and records for this station are not official NWS values.
T = Trace of Precipitation, MM = Missing Value Source: Averaged Metar Reports

Daily Weather History Graph

Daily Weather History Graph

Search for Another Location

Airport:

Trip Planner

Search our weather history database for the weather conditions in past years. The results will help you decide how hot, cold, wet, or windy it might be!

Date:

Astronomy

Jan. 18, 2013 Rise Set
Actual Time 6:45 AM ICT 6:10 PM ICT
Civil Twilight 6:22 AM ICT 6:33 PM ICT
Nautical Twilight 5:56 AM ICT 6:59 PM ICT
Astronomical Twilight 5:30 AM ICT 7:25 PM ICT
Moon 11:23 AM ICT No Moon Set
Length of Visible Light 12h 10m
Length of Day
11h 24m
Waxing Crescent, 42% of the Moon is Illuminated
Jan 18
Waxing Crescent
Jan 19
First Quarter
Jan 27
Full
Feb 3
Last Quarter
Feb 10
New

Hourly Weather History & Observations

Time (ICT) Temp. Heat Index Dew Point Humidity Pressure Visibility Wind Dir Wind Speed Gust Speed Precip Events Conditions
12:00 AM 80.6 °F 81.8 °F 62.6 °F 54% 30.01 in - ENE 5.8 mph - N/A   Clear
12:30 AM 78.8 °F - 60.8 °F 54% 30.01 in - East 4.6 mph - N/A   Clear
1:00 AM 77.0 °F - 60.8 °F 57% 30.01 in 6.2 mi East 4.6 mph - N/A   Scattered Clouds
1:30 AM 77.0 °F - 60.8 °F 57% 30.01 in 6.2 mi ENE 4.6 mph - N/A   Scattered Clouds
2:00 AM 77.0 °F - 60.8 °F 57% 30.01 in 6.2 mi East 5.8 mph - N/A   Scattered Clouds
2:30 AM 77.0 °F - 60.8 °F 57% 29.98 in 6.2 mi East 10.4 mph - N/A   Scattered Clouds
3:00 AM 77.0 °F - 60.8 °F 57% 29.98 in 6.2 mi East 5.8 mph - N/A   Scattered Clouds
3:30 AM 75.2 °F - 60.8 °F 61% 29.98 in 6.2 mi ENE 4.6 mph - N/A   Scattered Clouds
4:00 AM 75.2 °F - 62.6 °F 65% 29.98 in 5.6 mi ENE 5.8 mph - N/A   Scattered Clouds
4:30 AM 75.2 °F - 62.6 °F 65% 30.01 in 5.6 mi ENE 8.1 mph - N/A   Scattered Clouds
5:00 AM 75.2 °F - 60.8 °F 61% 30.01 in 5.6 mi ENE 8.1 mph - N/A   Scattered Clouds
5:30 AM 73.4 °F - 60.8 °F 65% 30.01 in 5.6 mi NE 10.4 mph - N/A   Scattered Clouds
6:00 AM 73.4 °F - 60.8 °F 65% 30.01 in 5.6 mi NNE 8.1 mph - N/A   Scattered Clouds
6:30 AM 73.4 °F - 60.8 °F 65% 30.04 in 5.0 mi ENE 8.1 mph - N/A   Scattered Clouds
7:00 AM 73 °F - 59 °F 53% 30.05 in 4 mi NE 6.9 mph - -   Haze
7:00 AM 73.4 °F - 59.0 °F 61% 30.04 in 4.3 mi NE 6.9 mph - N/A   Scattered Clouds
7:30 AM 73.4 °F - 59.0 °F 61% 30.04 in 5.0 mi NNE 6.9 mph - N/A   Scattered Clouds
8:00 AM 73.4 °F - 57.2 °F 57% 30.06 in 5.6 mi ENE 8.1 mph - N/A   Scattered Clouds
8:30 AM 75.2 °F - 57.2 °F 53% 30.06 in - East 8.1 mph - N/A   Clear
9:00 AM 75.2 °F - 57.2 °F 53% 30.06 in - ENE 11.5 mph - N/A   Clear
9:30 AM 77.0 °F - 57.2 °F 50% 30.06 in - East 5.8 mph - N/A   Clear
10:00 AM 78.8 °F - 57.2 °F 47% 30.06 in - ESE 9.2 mph - N/A   Clear
10:30 AM 78.8 °F - 57.2 °F 47% 30.06 in - East 11.5 mph - N/A   Clear
11:00 AM 80.6 °F 80.8 °F 57.2 °F 45% 30.06 in - East 13.8 mph - N/A   Clear
11:30 AM 80.6 °F 81.1 °F 59.0 °F 48% 30.04 in - East 11.5 mph - N/A   Clear
12:00 PM 82.4 °F 82.5 °F 59.0 °F 45% 30.04 in - ESE 8.1 mph - N/A   Clear
12:30 PM 82.4 °F 82.5 °F 59.0 °F 45% 30.01 in - NE 5.8 mph - N/A   Clear
1:00 PM 85 °F - 58 °F 30% 29.98 in 6 mi ESE 8.1 mph - -   Clear
1:00 PM 84.2 °F 83.8 °F 59.0 °F 42% 29.98 in - ESE 8.1 mph - N/A   Clear
1:30 PM 86.0 °F 84.9 °F 57.2 °F 37% 29.95 in - ENE 13.8 mph - N/A   Clear
2:00 PM 87.8 °F 86.5 °F 57.2 °F 35% 29.92 in - ENE 13.8 mph - N/A   Clear
2:30 PM 89.6 °F 88.1 °F 57.2 °F 33% 29.89 in - ESE 9.2 mph - N/A   Clear
3:00 PM 89.6 °F 88.1 °F 57.2 °F 33% 29.89 in - East 11.5 mph - N/A   Clear
3:30 PM 89.6 °F 88.1 °F 57.2 °F 33% 29.89 in - NE 9.2 mph - N/A   Clear
4:00 PM 91.4 °F 89.9 °F 57.2 °F 31% 29.89 in - NE 11.5 mph - N/A   Clear
4:30 PM 91.4 °F 89.9 °F 57.2 °F 31% 29.89 in - NE 8.1 mph - N/A   Clear
5:00 PM 89.6 °F 88.1 °F 57.2 °F 33% 29.89 in - East 9.2 mph - N/A   Clear
5:30 PM 89.6 °F 88.1 °F 57.2 °F 33% 29.92 in - East 8.1 mph - N/A   Clear
6:00 PM 87.8 °F 87.1 °F 59.0 °F 38% 29.92 in - East 5.8 mph - N/A   Clear
6:30 PM 86.0 °F 85.4 °F 59.0 °F 40% 29.92 in - East 3.5 mph - N/A   Clear
7:00 PM 86 °F - 60 °F 32% 29.95 in 6 mi ENE 4.6 mph - -   Clear
7:00 PM 86.0 °F 86.1 °F 60.8 °F 43% 29.95 in - ENE 4.6 mph - N/A   Clear
7:30 PM 84.2 °F 84.4 °F 60.8 °F 45% 29.95 in - East 4.6 mph - N/A   Clear
8:00 PM 84.2 °F 84.4 °F 60.8 °F 45% 29.98 in - SSE 3.5 mph - N/A   Clear
8:30 PM 82.4 °F 82.9 °F 60.8 °F 48% 29.98 in - NE 2.3 mph - N/A   Clear
9:00 PM 82.4 °F 82.9 °F 60.8 °F 48% 29.98 in 5.6 mi ENE 4.6 mph - N/A   Unknown
9:30 PM 80.6 °F 81.5 °F 60.8 °F 51% 29.98 in 5.6 mi East 4.6 mph - N/A   Unknown
10:00 PM 80.6 °F 81.5 °F 60.8 °F 51% 29.98 in 5.6 mi ESE 4.6 mph - N/A   Unknown
11:00 PM 78.8 °F - 60.8 °F 54% 30.01 in 5.6 mi ENE 3.5 mph - N/A   Unknown
11:30 PM 78.8 °F - 60.8 °F 54% 29.98 in 5.6 mi East 3.5 mph - N/A   Unknown